contact:dominique.lefevre@mio.osupytheas.fr, maurice.libes@osupytheas.fr, didier.mallarino@osupytheas.fr
Project:EMSO http://www.emso-fr.org/EMSO-France
Depth: 2436.0 m
Title:EMSO Ligure Ouest : Data MII capteur MICROCAT
DateTime_Computer,Latitude,Longitude,Temperature,Conductivity,Pressure,DateTime_Instrument
DateTime_Computer,Latitude,Longitude,degC,S m-1,dbar,DateTime_Instrument
2023-11-09T00:01:41Z,42.805,6.029,13.3026,4.60099,2470.717,2023-11-09T02:04:08Z
2023-11-09T00:04:45Z,42.805,6.029,13.3027,4.60100,2470.73,2023-11-09T02:07:11Z
2023-11-09T00:07:48Z,42.805,6.029,13.3032,4.60100,2470.73,2023-11-09T02:10:14Z
2023-11-09T00:10:51Z,42.805,6.029,13.3031,4.60099,2470.74,2023-11-09T02:13:17Z
2023-11-09T00:13:54Z,42.805,6.029,13.3031,4.60100,2470.726,2023-11-09T02:16:20Z
2023-11-09T00:16:57Z,42.805,6.029,13.3030,4.60099,2470.754,2023-11-09T02:19:23Z
2023-11-09T00:20:00Z,42.805,6.029,13.3032,4.60099,2470.74,2023-11-09T02:22:27Z
2023-11-09T00:23:03Z,42.805,6.029,13.3030,4.60099,2470.717,2023-11-09T02:25:30Z
2023-11-09T00:26:06Z,42.805,6.029,13.3031,4.60102,2470.74,2023-11-09T02:28:33Z
2023-11-09T00:29:09Z,42.805,6.029,13.3032,4.60099,2470.717,2023-11-09T02:31:36Z
2023-11-09T00:32:12Z,42.805,6.029,13.3029,4.60102,2470.74,2023-11-09T02:34:39Z
2023-11-09T00:35:15Z,42.805,6.029,13.3027,4.60101,2470.74,2023-11-09T02:37:42Z
2023-11-09T00:38:18Z,42.805,6.029,13.3033,4.60101,2470.74,2023-11-09T02:40:45Z
2023-11-09T00:41:21Z,42.805,6.029,13.3032,4.60102,2470.74,2023-11-09T02:43:48Z
2023-11-09T00:44:25Z,42.805,6.029,13.3033,4.60102,2470.754,2023-11-09T02:46:51Z
2023-11-09T00:47:28Z,42.805,6.029,13.3032,4.60101,2470.74,2023-11-09T02:49:54Z
2023-11-09T00:50:31Z,42.805,6.029,13.3033,4.60102,2470.74,2023-11-09T02:52:57Z
2023-11-09T00:53:34Z,42.805,6.029,13.3030,4.60103,2470.763,2023-11-09T02:56:00Z
2023-11-09T00:56:37Z,42.805,6.029,13.3029,4.60101,2470.763,2023-11-09T02:59:03Z
2023-11-09T00:59:40Z,42.805,6.029,13.3031,4.60102,2470.74,2023-11-09T03:02:07Z
2023-11-09T01:02:43Z,42.805,6.029,13.3033,4.60105,2470.717,2023-11-09T03:05:10Z
2023-11-09T01:05:46Z,42.805,6.029,13.3031,4.60104,2470.74,2023-11-09T03:08:13Z
2023-11-09T01:08:49Z,42.805,6.029,13.3034,4.60102,2470.763,2023-11-09T03:11:16Z
2023-11-09T01:11:52Z,42.805,6.029,13.3031,4.60103,2470.74,2023-11-09T03:14:19Z
2023-11-09T01:14:55Z,42.805,6.029,13.3031,4.60104,2470.754,2023-11-09T03:17:22Z
2023-11-09T01:17:58Z,42.805,6.029,13.3034,4.60102,2470.777,2023-11-09T03:20:25Z
2023-11-09T01:21:01Z,42.805,6.029,13.3036,4.60102,2470.763,2023-11-09T03:23:28Z
2023-11-09T01:24:04Z,42.805,6.029,13.3034,4.60102,2470.74,2023-11-09T03:26:31Z
2023-11-09T01:27:08Z,42.805,6.029,13.3035,4.60103,2470.763,2023-11-09T03:29:34Z
2023-11-09T01:30:11Z,42.805,6.029,13.3030,4.60103,2470.777,2023-11-09T03:32:37Z
2023-11-09T01:33:14Z,42.805,6.029,13.3029,4.60107,2470.754,2023-11-09T03:35:40Z
2023-11-09T01:36:17Z,42.805,6.029,13.3033,4.60103,2470.763,2023-11-09T03:38:43Z
2023-11-09T01:39:20Z,42.805,6.029,13.3036,4.60103,2470.787,2023-11-09T03:41:47Z
2023-11-09T01:42:23Z,42.805,6.029,13.3034,4.60104,2470.763,2023-11-09T03:44:50Z
2023-11-09T01:45:26Z,42.805,6.029,13.3035,4.60104,2470.8,2023-11-09T03:47:53Z
2023-11-09T01:48:29Z,42.805,6.029,13.3034,4.60104,2470.763,2023-11-09T03:50:56Z
2023-11-09T01:51:32Z,42.805,6.029,13.3034,4.60104,2470.763,2023-11-09T03:53:59Z
2023-11-09T01:54:35Z,42.805,6.029,13.3035,4.60104,2470.787,2023-11-09T03:57:02Z
2023-11-09T01:57:38Z,42.805,6.029,13.3032,4.60104,2470.763,2023-11-09T04:00:05Z
2023-11-09T02:00:41Z,42.805,6.029,13.3039,4.60104,2470.777,2023-11-09T04:03:08Z
2023-11-09T02:03:44Z,42.805,6.029,13.3033,4.60104,2470.81,2023-11-09T04:06:11Z
2023-11-09T02:06:48Z,42.805,6.029,13.3033,4.60104,2470.787,2023-11-09T04:09:14Z
2023-11-09T02:09:51Z,42.805,6.029,13.3034,4.60104,2470.763,2023-11-09T04:12:17Z
2023-11-09T02:12:54Z,42.805,6.029,13.3035,4.60104,2470.787,2023-11-09T04:15:20Z
2023-11-09T02:15:57Z,42.805,6.029,13.3036,4.60104,2470.8,2023-11-09T04:18:23Z
2023-11-09T02:19:00Z,42.805,6.029,13.3031,4.60106,2470.8,2023-11-09T04:21:27Z
2023-11-09T02:22:03Z,42.805,6.029,13.3029,4.60104,2470.75,2023-11-09T04:24:30Z
2023-11-09T02:25:06Z,42.805,6.029,13.3036,4.60104,2470.763,2023-11-09T04:27:33Z
2023-11-09T02:28:09Z,42.805,6.029,13.3039,4.60103,2470.754,2023-11-09T04:30:36Z
2023-11-09T02:31:12Z,42.805,6.029,13.3034,4.60104,2470.787,2023-11-09T04:33:39Z
2023-11-09T02:34:15Z,42.805,6.029,13.3037,4.60104,2470.787,2023-11-09T04:36:42Z
2023-11-09T02:37:18Z,42.805,6.029,13.3038,4.60104,2470.787,2023-11-09T04:39:45Z
2023-11-09T02:40:21Z,42.805,6.029,13.3031,4.60104,2470.787,2023-11-09T04:42:48Z
2023-11-09T02:43:24Z,42.805,6.029,13.3031,4.60104,2470.824,2023-11-09T04:45:51Z
2023-11-09T02:46:28Z,42.805,6.029,13.3031,4.60102,2470.787,2023-11-09T04:48:54Z
2023-11-09T02:49:31Z,42.805,6.029,13.3034,4.60103,2470.787,2023-11-09T04:51:57Z
2023-11-09T02:52:34Z,42.805,6.029,13.3036,4.60104,2470.787,2023-11-09T04:55:00Z
2023-11-09T02:55:37Z,42.805,6.029,13.3036,4.60107,2470.81,2023-11-09T04:58:03Z
2023-11-09T02:58:40Z,42.805,6.029,13.3035,4.60102,2470.787,2023-11-09T05:01:07Z
2023-11-09T03:01:43Z,42.805,6.029,13.3033,4.60102,2470.787,2023-11-09T05:04:10Z
2023-11-09T03:04:46Z,42.805,6.029,13.3033,4.60101,2470.824,2023-11-09T05:07:13Z
2023-11-09T03:07:49Z,42.805,6.029,13.3031,4.60101,2470.8,2023-11-09T05:10:16Z
2023-11-09T03:10:52Z,42.805,6.029,13.3030,4.60099,2470.8,2023-11-09T05:13:19Z
2023-11-09T03:13:55Z,42.805,6.029,13.3031,4.60101,2470.8,2023-11-09T05:16:22Z
2023-11-09T03:16:58Z,42.805,6.029,13.3034,4.60100,2470.763,2023-11-09T05:19:25Z
2023-11-09T03:20:01Z,42.805,6.029,13.3034,4.60099,2470.8,2023-11-09T05:22:28Z
2023-11-09T03:23:04Z,42.805,6.029,13.3035,4.60102,2470.763,2023-11-09T05:25:31Z
2023-11-09T03:26:08Z,42.805,6.029,13.3036,4.60100,2470.824,2023-11-09T05:28:34Z
2023-11-09T03:29:11Z,42.805,6.029,13.3033,4.60099,2470.81,2023-11-09T05:31:37Z
2023-11-09T03:32:14Z,42.805,6.029,13.3036,4.60099,2470.847,2023-11-09T05:34:40Z
2023-11-09T03:35:17Z,42.805,6.029,13.3034,4.60102,2470.847,2023-11-09T05:37:43Z
2023-11-09T03:38:20Z,42.805,6.029,13.3030,4.60102,2470.787,2023-11-09T05:40:47Z
2023-11-09T03:41:23Z,42.805,6.029,13.3031,4.60101,2470.81,2023-11-09T05:43:50Z
2023-11-09T03:44:26Z,42.805,6.029,13.3034,4.60099,2470.8,2023-11-09T05:46:53Z
2023-11-09T03:47:29Z,42.805,6.029,13.3036,4.60100,2470.796,2023-11-09T05:49:56Z
2023-11-09T03:50:32Z,42.805,6.029,13.3034,4.60100,2470.81,2023-11-09T05:52:59Z
2023-11-09T03:53:35Z,42.805,6.029,13.3035,4.60099,2470.824,2023-11-09T05:56:02Z
2023-11-09T03:56:38Z,42.805,6.029,13.3031,4.60102,2470.833,2023-11-09T05:59:05Z
2023-11-09T03:59:41Z,42.805,6.029,13.3034,4.60100,2470.81,2023-11-09T06:02:08Z
2023-11-09T04:02:44Z,42.805,6.029,13.3034,4.60101,2470.81,2023-11-09T06:05:11Z
2023-11-09T04:05:48Z,42.805,6.029,13.3034,4.60104,2470.833,2023-11-09T06:08:14Z
2023-11-09T04:08:51Z,42.805,6.029,13.3034,4.60099,2470.824,2023-11-09T06:11:17Z
2023-11-09T04:11:54Z,42.805,6.029,13.3033,4.60101,2470.847,2023-11-09T06:14:20Z
2023-11-09T04:14:57Z,42.805,6.029,13.3031,4.60099,2470.847,2023-11-09T06:17:23Z
2023-11-09T04:18:00Z,42.805,6.029,13.3031,4.60103,2470.81,2023-11-09T06:20:26Z
2023-11-09T04:21:03Z,42.805,6.029,13.3038,4.60101,2470.871,2023-11-09T06:23:30Z
2023-11-09T04:24:06Z,42.805,6.029,13.3034,4.60101,2470.833,2023-11-09T06:26:33Z
2023-11-09T04:27:09Z,42.805,6.029,13.3031,4.60102,2470.824,2023-11-09T06:29:36Z
2023-11-09T04:30:12Z,42.805,6.029,13.3035,4.60103,2470.833,2023-11-09T06:32:39Z
2023-11-09T04:33:15Z,42.805,6.029,13.3036,4.60102,2470.81,2023-11-09T06:35:42Z
2023-11-09T04:36:18Z,42.805,6.029,13.3034,4.60102,2470.847,2023-11-09T06:38:45Z
2023-11-09T04:39:21Z,42.805,6.029,13.3034,4.60101,2470.894,2023-11-09T06:41:48Z
2023-11-09T04:42:24Z,42.805,6.029,13.3034,4.60105,2470.847,2023-11-09T06:44:51Z
2023-11-09T04:45:28Z,42.805,6.029,13.3034,4.60102,2470.847,2023-11-09T06:47:54Z
2023-11-09T04:48:31Z,42.805,6.029,13.3038,4.60102,2470.824,2023-11-09T06:50:57Z
2023-11-09T04:51:34Z,42.805,6.029,13.3035,4.60101,2470.82,2023-11-09T06:54:00Z
2023-11-09T04:54:37Z,42.805,6.029,13.3036,4.60102,2470.857,2023-11-09T06:57:03Z
2023-11-09T04:57:40Z,42.805,6.029,13.3036,4.60101,2470.833,2023-11-09T07:00:07Z
2023-11-09T05:00:43Z,42.805,6.029,13.3031,4.60103,2470.833,2023-11-09T07:03:10Z
2023-11-09T05:03:46Z,42.805,6.029,13.3039,4.60104,2470.81,2023-11-09T07:06:13Z
2023-11-09T05:06:49Z,42.805,6.029,13.3032,4.60102,2470.833,2023-11-09T07:09:16Z
2023-11-09T05:09:52Z,42.805,6.029,13.3034,4.60103,2470.857,2023-11-09T07:12:19Z
2023-11-09T05:12:55Z,42.805,6.029,13.3036,4.60102,2470.81,2023-11-09T07:15:22Z
2023-11-09T05:15:58Z,42.805,6.029,13.3039,4.60102,2470.81,2023-11-09T07:18:25Z
2023-11-09T05:19:01Z,42.805,6.029,13.3036,4.60102,2470.871,2023-11-09T07:21:28Z
2023-11-09T05:22:04Z,42.805,6.029,13.3032,4.60105,2470.833,2023-11-09T07:24:31Z
2023-11-09T05:25:07Z,42.805,6.029,13.3036,4.60106,2470.871,2023-11-09T07:27:34Z
2023-11-09T05:28:11Z,42.805,6.029,13.3039,4.60103,2470.833,2023-11-09T07:30:37Z
2023-11-09T05:31:14Z,42.805,6.029,13.3036,4.60102,2470.871,2023-11-09T07:33:41Z
2023-11-09T05:34:17Z,42.805,6.029,13.3034,4.60103,2470.847,2023-11-09T07:36:44Z
2023-11-09T05:37:21Z,42.805,6.029,13.3031,4.60103,2470.857,2023-11-09T07:39:47Z
2023-11-09T05:40:24Z,42.805,6.029,13.3035,4.60106,2470.847,2023-11-09T07:42:50Z
2023-11-09T05:43:27Z,42.805,6.029,13.3034,4.60107,2470.833,2023-11-09T07:45:53Z
2023-11-09T05:46:30Z,42.805,6.029,13.3036,4.60102,2470.847,2023-11-09T07:48:56Z
2023-11-09T05:49:33Z,42.805,6.029,13.3035,4.60104,2470.833,2023-11-09T07:52:00Z
2023-11-09T05:52:36Z,42.805,6.029,13.3035,4.60103,2470.871,2023-11-09T07:55:03Z
2023-11-09T05:55:39Z,42.805,6.029,13.3036,4.60102,2470.81,2023-11-09T07:58:06Z
2023-11-09T05:58:42Z,42.805,6.029,13.3034,4.60106,2470.81,2023-11-09T08:01:09Z
2023-11-09T06:01:45Z,42.805,6.029,13.3034,4.60102,2470.871,2023-11-09T08:04:12Z
2023-11-09T06:04:48Z,42.805,6.029,13.3034,4.60103,2470.847,2023-11-09T08:07:15Z
2023-11-09T06:07:51Z,42.805,6.029,13.3036,4.60102,2470.833,2023-11-09T08:10:18Z
2023-11-09T06:10:54Z,42.805,6.029,13.3036,4.60103,2470.824,2023-11-09T08:13:21Z
2023-11-09T06:13:57Z,42.805,6.029,13.3037,4.60106,2470.81,2023-11-09T08:16:24Z
2023-11-09T06:17:01Z,42.805,6.029,13.3035,4.60103,2470.82,2023-11-09T08:19:27Z
2023-11-09T06:20:04Z,42.805,6.029,13.3036,4.60102,2470.857,2023-11-09T08:22:30Z
2023-11-09T06:23:07Z,42.805,6.029,13.3032,4.60102,2470.857,2023-11-09T08:25:33Z
2023-11-09T06:26:10Z,42.805,6.029,13.3037,4.60102,2470.81,2023-11-09T08:28:36Z
2023-11-09T06:29:13Z,42.805,6.029,13.3037,4.60102,2470.847,2023-11-09T08:31:40Z
2023-11-09T06:32:16Z,42.805,6.029,13.3036,4.60103,2470.833,2023-11-09T08:34:43Z
2023-11-09T06:35:19Z,42.805,6.029,13.3036,4.60102,2470.81,2023-11-09T08:37:46Z
2023-11-09T06:38:22Z,42.805,6.029,13.3036,4.60102,2470.833,2023-11-09T08:40:49Z
2023-11-09T06:41:25Z,42.805,6.029,13.3035,4.60103,2470.833,2023-11-09T08:43:52Z
2023-11-09T06:44:28Z,42.805,6.029,13.3039,4.60102,2470.847,2023-11-09T08:46:55Z
2023-11-09T06:47:31Z,42.805,6.029,13.3036,4.60102,2470.847,2023-11-09T08:49:58Z
2023-11-09T06:50:34Z,42.805,6.029,13.3033,4.60103,2470.857,2023-11-09T08:53:01Z
2023-11-09T06:53:37Z,42.805,6.029,13.3039,4.60102,2470.81,2023-11-09T08:56:04Z
2023-11-09T06:56:41Z,42.805,6.029,13.3038,4.60104,2470.81,2023-11-09T08:59:07Z
2023-11-09T06:59:44Z,42.805,6.029,13.3032,4.60102,2470.81,2023-11-09T09:02:10Z
2023-11-09T07:02:47Z,42.805,6.029,13.3035,4.60102,2470.833,2023-11-09T09:05:13Z
2023-11-09T07:05:50Z,42.805,6.029,13.3035,4.60105,2470.81,2023-11-09T09:08:16Z
2023-11-09T07:08:53Z,42.805,6.029,13.3036,4.60104,2470.81,2023-11-09T09:11:20Z
2023-11-09T07:11:56Z,42.805,6.029,13.3038,4.60102,2470.81,2023-11-09T09:14:23Z
2023-11-09T07:14:59Z,42.805,6.029,13.3038,4.60105,2470.824,2023-11-09T09:17:26Z
2023-11-09T07:18:02Z,42.805,6.029,13.3034,4.60103,2470.787,2023-11-09T09:20:29Z
2023-11-09T07:21:05Z,42.805,6.029,13.3039,4.60104,2470.81,2023-11-09T09:23:32Z
2023-11-09T07:24:08Z,42.805,6.029,13.3034,4.60106,2470.81,2023-11-09T09:26:35Z
2023-11-09T07:27:11Z,42.805,6.029,13.3037,4.60102,2470.787,2023-11-09T09:29:38Z
2023-11-09T07:30:14Z,42.805,6.029,13.3034,4.60102,2470.81,2023-11-09T09:32:41Z
2023-11-09T07:33:17Z,42.805,6.029,13.3034,4.60102,2470.81,2023-11-09T09:35:44Z
2023-11-09T07:36:21Z,42.805,6.029,13.3038,4.60102,2470.8,2023-11-09T09:38:47Z
2023-11-09T07:39:24Z,42.805,6.029,13.3036,4.60102,2470.824,2023-11-09T09:41:50Z
2023-11-09T07:42:27Z,42.805,6.029,13.3036,4.60102,2470.824,2023-11-09T09:44:53Z
2023-11-09T07:45:30Z,42.805,6.029,13.3038,4.60102,2470.787,2023-11-09T09:47:56Z
2023-11-09T07:48:33Z,42.805,6.029,13.3033,4.60102,2470.787,2023-11-09T09:51:00Z
2023-11-09T07:51:36Z,42.805,6.029,13.3034,4.60102,2470.787,2023-11-09T09:54:03Z
2023-11-09T07:54:39Z,42.805,6.029,13.3033,4.60106,2470.763,2023-11-09T09:57:06Z
2023-11-09T07:57:42Z,42.805,6.029,13.3039,4.60103,2470.824,2023-11-09T10:00:09Z
2023-11-09T08:00:45Z,42.805,6.029,13.3035,4.60104,2470.81,2023-11-09T10:03:12Z
2023-11-09T08:03:48Z,42.805,6.029,13.3037,4.60102,2470.824,2023-11-09T10:06:15Z
2023-11-09T08:06:51Z,42.805,6.029,13.3034,4.60103,2470.81,2023-11-09T10:09:18Z
2023-11-09T08:09:54Z,42.805,6.029,13.3033,4.60107,2470.833,2023-11-09T10:12:21Z
2023-11-09T08:12:57Z,42.805,6.029,13.3039,4.60104,2470.8,2023-11-09T10:15:24Z
2023-11-09T08:16:01Z,42.805,6.029,13.3038,4.60103,2470.75,2023-11-09T10:18:27Z
2023-11-09T08:19:04Z,42.805,6.029,13.3036,4.60104,2470.81,2023-11-09T10:21:30Z
2023-11-09T08:22:07Z,42.805,6.029,13.3035,4.60106,2470.8,2023-11-09T10:24:33Z
2023-11-09T08:25:10Z,42.805,6.029,13.3037,4.60107,2470.81,2023-11-09T10:27:36Z
2023-11-09T08:28:13Z,42.805,6.029,13.3039,4.60103,2470.787,2023-11-09T10:30:40Z
2023-11-09T08:31:16Z,42.805,6.029,13.3039,4.60104,2470.787,2023-11-09T10:33:43Z
2023-11-09T08:34:19Z,42.805,6.029,13.3037,4.60103,2470.787,2023-11-09T10:36:46Z
2023-11-09T08:37:22Z,42.805,6.029,13.3036,4.60106,2470.763,2023-11-09T10:39:49Z
2023-11-09T08:40:25Z,42.805,6.029,13.3037,4.60103,2470.81,2023-11-09T10:42:52Z
2023-11-09T08:43:28Z,42.805,6.029,13.3043,4.60103,2470.787,2023-11-09T10:45:55Z
2023-11-09T08:46:31Z,42.805,6.029,13.3032,4.60107,2470.81,2023-11-09T10:48:58Z
2023-11-09T08:49:34Z,42.805,6.029,13.3035,4.60104,2470.81,2023-11-09T10:52:01Z
2023-11-09T08:52:37Z,42.805,6.029,13.3038,4.60107,2470.763,2023-11-09T10:55:04Z
2023-11-09T08:55:41Z,42.805,6.029,13.3036,4.60109,2470.8,2023-11-09T10:58:07Z
2023-11-09T08:58:44Z,42.805,6.029,13.3037,4.60106,2470.824,2023-11-09T11:01:10Z
2023-11-09T09:01:47Z,42.805,6.029,13.3039,4.60104,2470.763,2023-11-09T11:04:13Z
2023-11-09T09:04:50Z,42.805,6.029,13.3038,4.60103,2470.787,2023-11-09T11:07:16Z
2023-11-09T09:07:53Z,42.805,6.029,13.3037,4.60104,2470.8,2023-11-09T11:10:20Z
2023-11-09T09:10:56Z,42.805,6.029,13.3036,4.60104,2470.763,2023-11-09T11:13:23Z
2023-11-09T09:13:59Z,42.805,6.029,13.3037,4.60104,2470.824,2023-11-09T11:16:26Z
2023-11-09T09:17:02Z,42.805,6.029,13.3036,4.60107,2470.763,2023-11-09T11:19:29Z
2023-11-09T09:20:05Z,42.805,6.029,13.3037,4.60104,2470.74,2023-11-09T11:22:32Z
2023-11-09T09:23:08Z,42.805,6.029,13.3034,4.60106,2470.787,2023-11-09T11:25:35Z
2023-11-09T09:26:11Z,42.805,6.029,13.3032,4.60103,2470.777,2023-11-09T11:28:38Z
2023-11-09T09:29:14Z,42.805,6.029,13.3038,4.60103,2470.763,2023-11-09T11:31:41Z
2023-11-09T09:32:18Z,42.805,6.029,13.3039,4.60106,2470.777,2023-11-09T11:34:44Z
2023-11-09T09:35:21Z,42.805,6.029,13.3036,4.60104,2470.81,2023-11-09T11:37:47Z
2023-11-09T09:38:24Z,42.805,6.029,13.3038,4.60103,2470.763,2023-11-09T11:40:50Z
2023-11-09T09:41:27Z,42.805,6.029,13.3040,4.60105,2470.726,2023-11-09T11:43:53Z
2023-11-09T09:44:30Z,42.805,6.029,13.3039,4.60104,2470.8,2023-11-09T11:46:57Z
2023-11-09T09:47:33Z,42.805,6.029,13.3036,4.60103,2470.787,2023-11-09T11:50:00Z
2023-11-09T09:50:36Z,42.805,6.029,13.3038,4.60103,2470.75,2023-11-09T11:53:03Z
2023-11-09T09:53:39Z,42.805,6.029,13.3034,4.60104,2470.74,2023-11-09T11:56:06Z
2023-11-09T09:56:42Z,42.805,6.029,13.3037,4.60102,2470.763,2023-11-09T11:59:09Z
2023-11-09T09:59:45Z,42.805,6.029,13.3036,4.60103,2470.777,2023-11-09T12:02:12Z
2023-11-09T10:02:48Z,42.805,6.029,13.3030,4.60104,2470.8,2023-11-09T12:05:15Z
2023-11-09T10:05:51Z,42.805,6.029,13.3033,4.60103,2470.787,2023-11-09T12:08:18Z
2023-11-09T10:08:54Z,42.805,6.029,13.3034,4.60103,2470.763,2023-11-09T12:11:21Z
2023-11-09T10:11:58Z,42.805,6.029,13.3032,4.60104,2470.787,2023-11-09T12:14:24Z
2023-11-09T10:15:01Z,42.805,6.029,13.3038,4.60103,2470.763,2023-11-09T12:17:27Z
2023-11-09T10:18:04Z,42.805,6.029,13.3040,4.60103,2470.74,2023-11-09T12:20:30Z
2023-11-09T10:21:07Z,42.805,6.029,13.3033,4.60105,2470.763,2023-11-09T12:23:33Z
2023-11-09T10:24:10Z,42.805,6.029,13.3036,4.60102,2470.763,2023-11-09T12:26:37Z
2023-11-09T10:27:13Z,42.805,6.029,13.3031,4.60103,2470.777,2023-11-09T12:29:40Z
2023-11-09T10:30:16Z,42.805,6.029,13.3033,4.60106,2470.763,2023-11-09T12:32:43Z
2023-11-09T10:33:19Z,42.805,6.029,13.3037,4.60102,2470.8,2023-11-09T12:35:46Z
2023-11-09T10:36:22Z,42.805,6.029,13.3036,4.60103,2470.763,2023-11-09T12:38:49Z
2023-11-09T10:39:25Z,42.805,6.029,13.3037,4.60102,2470.777,2023-11-09T12:41:52Z
2023-11-09T10:42:28Z,42.805,6.029,13.3034,4.60102,2470.787,2023-11-09T12:44:55Z
2023-11-09T10:45:31Z,42.805,6.029,13.3035,4.60107,2470.763,2023-11-09T12:47:58Z
2023-11-09T10:48:35Z,42.805,6.029,13.3036,4.60104,2470.787,2023-11-09T12:51:01Z
2023-11-09T10:51:38Z,42.805,6.029,13.3034,4.60103,2470.754,2023-11-09T12:54:04Z
2023-11-09T10:54:41Z,42.805,6.029,13.3034,4.60103,2470.763,2023-11-09T12:57:07Z
2023-11-09T10:57:44Z,42.805,6.029,13.3035,4.60102,2470.763,2023-11-09T13:00:10Z
2023-11-09T11:00:47Z,42.805,6.029,13.3031,4.60103,2470.8,2023-11-09T13:03:14Z
2023-11-09T11:03:50Z,42.805,6.029,13.3034,4.60102,2470.754,2023-11-09T13:06:17Z
2023-11-09T11:06:53Z,42.805,6.029,13.3033,4.60102,2470.74,2023-11-09T13:09:20Z
2023-11-09T11:09:56Z,42.805,6.029,13.3039,4.60104,2470.763,2023-11-09T13:12:23Z
2023-11-09T11:12:59Z,42.805,6.029,13.3034,4.60104,2470.763,2023-11-09T13:15:26Z
2023-11-09T11:16:02Z,42.805,6.029,13.3035,4.60102,2470.763,2023-11-09T13:18:29Z
2023-11-09T11:19:05Z,42.805,6.029,13.3034,4.60102,2470.763,2023-11-09T13:21:32Z
2023-11-09T11:22:08Z,42.805,6.029,13.3036,4.60102,2470.787,2023-11-09T13:24:35Z
2023-11-09T11:25:11Z,42.805,6.029,13.3034,4.60102,2470.763,2023-11-09T13:27:38Z
2023-11-09T11:28:15Z,42.805,6.029,13.3038,4.60102,2470.787,2023-11-09T13:30:41Z
2023-11-09T11:31:18Z,42.805,6.029,13.3039,4.60104,2470.763,2023-11-09T13:33:44Z
2023-11-09T11:34:21Z,42.805,6.029,13.3036,4.60102,2470.8,2023-11-09T13:36:47Z
2023-11-09T11:37:24Z,42.805,6.029,13.3034,4.60104,2470.763,2023-11-09T13:39:50Z
2023-11-09T11:40:27Z,42.805,6.029,13.3038,4.60102,2470.763,2023-11-09T13:42:54Z
2023-11-09T11:43:30Z,42.805,6.029,13.3036,4.60102,2470.763,2023-11-09T13:45:57Z
2023-11-09T11:46:33Z,42.805,6.029,13.3037,4.60104,2470.763,2023-11-09T13:49:00Z
2023-11-09T11:49:36Z,42.805,6.029,13.3035,4.60102,2470.763,2023-11-09T13:52:03Z
2023-11-09T11:52:39Z,42.805,6.029,13.3036,4.60104,2470.763,2023-11-09T13:55:06Z
2023-11-09T11:55:42Z,42.805,6.029,13.3036,4.60102,2470.763,2023-11-09T13:58:09Z
2023-11-09T11:58:45Z,42.805,6.029,13.3036,4.60102,2470.8,2023-11-09T14:01:12Z
2023-11-09T12:01:48Z,42.805,6.029,13.3030,4.60102,2470.787,2023-11-09T14:04:15Z
2023-11-09T12:04:51Z,42.805,6.029,13.3033,4.60102,2470.763,2023-11-09T14:07:18Z
2023-11-09T12:07:55Z,42.805,6.029,13.3035,4.60102,2470.754,2023-11-09T14:10:21Z
2023-11-09T12:10:58Z,42.805,6.029,13.3034,4.60104,2470.787,2023-11-09T14:13:24Z
2023-11-09T12:14:01Z,42.805,6.029,13.3032,4.60102,2470.824,2023-11-09T14:16:27Z
2023-11-09T12:17:04Z,42.805,6.029,13.3033,4.60103,2470.81,2023-11-09T14:19:31Z
2023-11-09T12:20:07Z,42.805,6.029,13.3036,4.60103,2470.763,2023-11-09T14:22:34Z
2023-11-09T12:23:10Z,42.805,6.029,13.3033,4.60102,2470.824,2023-11-09T14:25:37Z
2023-11-09T12:26:13Z,42.805,6.029,13.3032,4.60102,2470.8,2023-11-09T14:28:40Z
2023-11-09T12:29:16Z,42.805,6.029,13.3031,4.60105,2470.8,2023-11-09T14:31:43Z
2023-11-09T12:32:19Z,42.805,6.029,13.3035,4.60103,2470.787,2023-11-09T14:34:46Z
2023-11-09T12:35:22Z,42.805,6.029,13.3031,4.60103,2470.777,2023-11-09T14:37:49Z
2023-11-09T12:38:25Z,42.805,6.029,13.3036,4.60103,2470.81,2023-11-09T14:40:52Z
2023-11-09T12:41:28Z,42.805,6.029,13.3036,4.60105,2470.81,2023-11-09T14:43:55Z
2023-11-09T12:44:32Z,42.805,6.029,13.3035,4.60104,2470.787,2023-11-09T14:46:58Z
2023-11-09T12:47:35Z,42.805,6.029,13.3035,4.60104,2470.833,2023-11-09T14:50:01Z
2023-11-09T12:50:38Z,42.805,6.029,13.3035,4.60103,2470.81,2023-11-09T14:53:04Z
2023-11-09T12:53:41Z,42.805,6.029,13.3034,4.60103,2470.787,2023-11-09T14:56:07Z
2023-11-09T12:56:44Z,42.805,6.029,13.3034,4.60105,2470.787,2023-11-09T14:59:11Z
2023-11-09T12:59:47Z,42.805,6.029,13.3037,4.60107,2470.787,2023-11-09T15:02:14Z
2023-11-09T13:02:50Z,42.805,6.029,13.3034,4.60104,2470.777,2023-11-09T15:05:17Z
2023-11-09T13:05:53Z,42.805,6.029,13.3036,4.60104,2470.81,2023-11-09T15:08:20Z
2023-11-09T13:08:56Z,42.805,6.029,13.3036,4.60105,2470.787,2023-11-09T15:11:23Z
2023-11-09T13:11:59Z,42.805,6.029,13.3033,4.60105,2470.763,2023-11-09T15:14:26Z
2023-11-09T13:15:02Z,42.805,6.029,13.3035,4.60104,2470.81,2023-11-09T15:17:29Z
2023-11-09T13:18:05Z,42.805,6.029,13.3034,4.60103,2470.824,2023-11-09T15:20:32Z
2023-11-09T13:21:08Z,42.805,6.029,13.3036,4.60105,2470.8,2023-11-09T15:23:35Z
2023-11-09T13:24:12Z,42.805,6.029,13.3034,4.60104,2470.824,2023-11-09T15:26:38Z
2023-11-09T13:27:15Z,42.805,6.029,13.3033,4.60104,2470.824,2023-11-09T15:29:41Z
2023-11-09T13:30:18Z,42.805,6.029,13.3036,4.60104,2470.81,2023-11-09T15:32:44Z
2023-11-09T13:33:21Z,42.805,6.029,13.3034,4.60104,2470.847,2023-11-09T15:35:48Z
2023-11-09T13:36:24Z,42.805,6.029,13.3037,4.60104,2470.824,2023-11-09T15:38:51Z
2023-11-09T13:39:27Z,42.805,6.029,13.3036,4.60104,2470.787,2023-11-09T15:41:54Z
2023-11-09T13:42:30Z,42.805,6.029,13.3036,4.60104,2470.847,2023-11-09T15:44:57Z
2023-11-09T13:45:33Z,42.805,6.029,13.3035,4.60104,2470.833,2023-11-09T15:48:00Z
2023-11-09T13:48:36Z,42.805,6.029,13.3036,4.60104,2470.81,2023-11-09T15:51:03Z
2023-11-09T13:51:39Z,42.805,6.029,13.3038,4.60104,2470.833,2023-11-09T15:54:06Z
2023-11-09T13:54:42Z,42.805,6.029,13.3037,4.60105,2470.824,2023-11-09T15:57:09Z
2023-11-09T13:57:45Z,42.805,6.029,13.3035,4.60105,2470.857,2023-11-09T16:00:12Z
2023-11-09T14:00:49Z,42.805,6.029,13.3034,4.60104,2470.847,2023-11-09T16:03:15Z
2023-11-09T14:03:52Z,42.805,6.029,13.3035,4.60104,2470.81,2023-11-09T16:06:18Z
2023-11-09T14:06:55Z,42.805,6.029,13.3036,4.60104,2470.81,2023-11-09T16:09:21Z
2023-11-09T14:09:58Z,42.805,6.029,13.3036,4.60106,2470.81,2023-11-09T16:12:24Z
2023-11-09T14:13:01Z,42.805,6.029,13.3038,4.60106,2470.833,2023-11-09T16:15:28Z
2023-11-09T14:16:04Z,42.805,6.029,13.3033,4.60104,2470.857,2023-11-09T16:18:31Z
2023-11-09T14:19:07Z,42.805,6.029,13.3034,4.60107,2470.81,2023-11-09T16:21:34Z
2023-11-09T14:22:10Z,42.805,6.029,13.3035,4.60106,2470.833,2023-11-09T16:24:37Z
2023-11-09T14:25:13Z,42.805,6.029,13.3036,4.60106,2470.833,2023-11-09T16:27:40Z
2023-11-09T14:28:16Z,42.805,6.029,13.3035,4.60106,2470.833,2023-11-09T16:30:43Z
2023-11-09T14:31:19Z,42.805,6.029,13.3035,4.60106,2470.857,2023-11-09T16:33:46Z
2023-11-09T14:34:22Z,42.805,6.029,13.3034,4.60105,2470.847,2023-11-09T16:36:49Z
2023-11-09T14:37:26Z,42.805,6.029,13.3036,4.60105,2470.824,2023-11-09T16:39:52Z
2023-11-09T14:40:29Z,42.805,6.029,13.3039,4.60104,2470.871,2023-11-09T16:42:55Z
2023-11-09T14:43:32Z,42.805,6.029,13.3036,4.60105,2470.847,2023-11-09T16:45:58Z
2023-11-09T14:46:35Z,42.805,6.029,13.3036,4.60105,2470.81,2023-11-09T16:49:01Z
2023-11-09T14:49:38Z,42.805,6.029,13.3035,4.60106,2470.857,2023-11-09T16:52:05Z
2023-11-09T14:52:41Z,42.805,6.029,13.3035,4.60104,2470.847,2023-11-09T16:55:08Z
2023-11-09T14:55:44Z,42.805,6.029,13.3034,4.60105,2470.833,2023-11-09T16:58:11Z
2023-11-09T14:58:47Z,42.805,6.029,13.3035,4.60106,2470.857,2023-11-09T17:01:14Z
2023-11-09T15:01:50Z,42.805,6.029,13.3032,4.60105,2470.847,2023-11-09T17:04:17Z